#datetime,building,power
2023-06-28T00:00:00,mfh,34.08
2023-06-28T00:01:00,mfh,34.02
2023-06-28T00:02:00,mfh,33.98
2023-06-28T00:03:00,mfh,34.00
2023-06-28T00:04:00,mfh,33.33
2023-06-28T00:05:00,mfh,33.72
2023-06-28T00:06:00,mfh,33.34
2023-06-28T00:07:00,mfh,33.26
2023-06-28T00:08:00,mfh,33.89
2023-06-28T00:09:00,mfh,34.21
2023-06-28T00:10:00,mfh,34.26
2023-06-28T00:11:00,mfh,34.56
2023-06-28T00:12:00,mfh,34.33
2023-06-28T00:13:00,mfh,33.52
2023-06-28T00:14:00,mfh,33.54
2023-06-28T00:15:00,mfh,33.53
2023-06-28T00:16:00,mfh,34.14
2023-06-28T00:17:00,mfh,33.99
2023-06-28T00:18:00,mfh,34.15
2023-06-28T00:19:00,mfh,34.27
2023-06-28T00:20:00,mfh,34.19
2023-06-28T00:21:00,mfh,33.52
2023-06-28T00:22:00,mfh,33.90
2023-06-28T00:23:00,mfh,33.68
2023-06-28T00:24:00,mfh,33.66
2023-06-28T00:25:00,mfh,33.58
2023-06-28T00:26:00,mfh,34.26
2023-06-28T00:27:00,mfh,34.47
2023-06-28T00:28:00,mfh,34.46
2023-06-28T00:29:00,mfh,34.32
2023-06-28T00:30:00,mfh,33.62
2023-06-28T00:31:00,mfh,33.56
2023-06-28T00:32:00,mfh,33.57
2023-06-28T00:33:00,mfh,33.65
2023-06-28T00:34:00,mfh,34.20
2023-06-28T00:35:00,mfh,34.15
2023-06-28T00:36:00,mfh,34.66
2023-06-28T00:37:00,mfh,34.25
2023-06-28T00:38:00,mfh,34.26
2023-06-28T00:39:00,mfh,33.66
2023-06-28T00:40:00,mfh,33.61
2023-06-28T00:41:00,mfh,33.48
2023-06-28T00:42:00,mfh,33.48
2023-06-28T00:43:00,mfh,34.19
2023-06-28T00:44:00,mfh,34.60
2023-06-28T00:45:00,mfh,34.34
2023-06-28T00:46:00,mfh,34.47
2023-06-28T00:47:00,mfh,34.72
2023-06-28T00:48:00,mfh,33.57
2023-06-28T00:49:00,mfh,33.57
2023-06-28T00:50:00,mfh,33.48
2023-06-28T00:51:00,mfh,34.16
2023-06-28T00:52:00,mfh,34.51
2023-06-28T00:53:00,mfh,33.97
2023-06-28T00:54:00,mfh,34.87
2023-06-28T00:55:00,mfh,33.99
2023-06-28T00:56:00,mfh,33.69
2023-06-28T00:57:00,mfh,33.28
2023-06-28T00:58:00,mfh,33.26
2023-06-28T00:59:00,mfh,33.14
2023-06-28T01:00:00,mfh,32.66
2023-06-28T01:01:00,mfh,32.69
2023-06-28T01:02:00,mfh,32.73
2023-06-28T01:03:00,mfh,32.92
2023-06-28T01:04:00,mfh,32.52
2023-06-28T01:05:00,mfh,31.84
2023-06-28T01:06:00,mfh,31.78
2023-06-28T01:07:00,mfh,31.87
2023-06-28T01:08:00,mfh,31.87
2023-06-28T01:09:00,mfh,32.49
2023-06-28T01:10:00,mfh,33.49
2023-06-28T01:11:00,mfh,32.44
2023-06-28T01:12:00,mfh,32.45
2023-06-28T01:13:00,mfh,32.67
2023-06-28T01:14:00,mfh,31.95
2023-06-28T01:15:00,mfh,32.02
2023-06-28T01:16:00,mfh,32.12
2023-06-28T01:17:00,mfh,32.08
2023-06-28T01:18:00,mfh,32.74
2023-06-28T01:19:00,mfh,32.81
2023-06-28T01:20:00,mfh,32.77
2023-06-28T01:21:00,mfh,33.41
2023-06-28T01:22:00,mfh,33.18
2023-06-28T01:23:00,mfh,32.60
2023-06-28T01:24:00,mfh,32.28
2023-06-28T01:25:00,mfh,32.25
2023-06-28T01:26:00,mfh,33.00
2023-06-28T01:27:00,mfh,32.96
2023-06-28T01:28:00,mfh,33.42
2023-06-28T01:29:00,mfh,33.10
2023-06-28T01:30:00,mfh,33.46
2023-06-28T01:31:00,mfh,32.04
2023-06-28T01:32:00,mfh,32.09
2023-06-28T01:33:00,mfh,32.02
2023-06-28T01:34:00,mfh,32.08
2023-06-28T01:35:00,mfh,32.70
2023-06-28T01:36:00,mfh,32.69
2023-06-28T01:37:00,mfh,32.63
2023-06-28T01:38:00,mfh,32.67
2023-06-28T01:39:00,mfh,33.22
2023-06-28T01:40:00,mfh,32.20
2023-06-28T01:41:00,mfh,32.18
2023-06-28T01:42:00,mfh,32.10
2023-06-28T01:43:00,mfh,32.01
2023-06-28T01:44:00,mfh,32.71
2023-06-28T01:45:00,mfh,33.03
2023-06-28T01:46:00,mfh,32.72
2023-06-28T01:47:00,mfh,32.69
2023-06-28T01:48:00,mfh,32.60
2023-06-28T01:49:00,mfh,32.00
2023-06-28T01:50:00,mfh,31.99
2023-06-28T01:51:00,mfh,31.98
2023-06-28T01:52:00,mfh,32.02
2023-06-28T01:53:00,mfh,32.83
2023-06-28T01:54:00,mfh,32.76
2023-06-28T01:55:00,mfh,32.66
2023-06-28T01:56:00,mfh,32.45
2023-06-28T01:57:00,mfh,31.80
2023-06-28T01:58:00,mfh,31.88
2023-06-28T01:59:00,mfh,31.95
2023-06-28T02:00:00,mfh,31.86
2023-06-28T02:01:00,mfh,32.50
2023-06-28T02:02:00,mfh,32.44
2023-06-28T02:03:00,mfh,32.46
2023-06-28T02:04:00,mfh,32.53
2023-06-28T02:05:00,mfh,32.64
2023-06-28T02:06:00,mfh,34.11
2023-06-28T02:07:00,mfh,34.24
2023-06-28T02:08:00,mfh,34.22
2023-06-28T02:09:00,mfh,34.27
2023-06-28T02:10:00,mfh,34.73
2023-06-28T02:11:00,mfh,34.73
2023-06-28T02:12:00,mfh,33.15
2023-06-28T02:13:00,mfh,32.55
2023-06-28T02:14:00,mfh,31.85
2023-06-28T02:15:00,mfh,32.63
2023-06-28T02:16:00,mfh,31.95
2023-06-28T02:17:00,mfh,31.90
2023-06-28T02:18:00,mfh,32.73
2023-06-28T02:19:00,mfh,33.27
2023-06-28T02:20:00,mfh,32.83
2023-06-28T02:21:00,mfh,33.79
2023-06-28T02:22:00,mfh,32.87
2023-06-28T02:23:00,mfh,32.31
2023-06-28T02:24:00,mfh,32.29
2023-06-28T02:25:00,mfh,32.36
2023-06-28T02:26:00,mfh,32.29
2023-06-28T02:27:00,mfh,33.25
2023-06-28T02:28:00,mfh,32.86
2023-06-28T02:29:00,mfh,32.80
2023-06-28T02:30:00,mfh,32.84
2023-06-28T02:31:00,mfh,32.98
2023-06-28T02:32:00,mfh,32.28
2023-06-28T02:33:00,mfh,32.22
2023-06-28T02:34:00,mfh,32.15
2023-06-28T02:35:00,mfh,32.14
2023-06-28T02:36:00,mfh,32.70
2023-06-28T02:37:00,mfh,32.62
2023-06-28T02:38:00,mfh,32.73
2023-06-28T02:39:00,mfh,32.75
2023-06-28T02:40:00,mfh,32.72
2023-06-28T02:41:00,mfh,31.98
2023-06-28T02:42:00,mfh,31.98
2023-06-28T02:43:00,mfh,32.19
2023-06-28T02:44:00,mfh,32.71
2023-06-28T02:45:00,mfh,32.64
2023-06-28T02:46:00,mfh,32.68
2023-06-28T02:47:00,mfh,32.69
2023-06-28T02:48:00,mfh,32.70
2023-06-28T02:49:00,mfh,32.00
2023-06-28T02:50:00,mfh,32.08
2023-06-28T02:51:00,mfh,32.15
2023-06-28T02:52:00,mfh,32.24
2023-06-28T02:53:00,mfh,33.01
2023-06-28T02:54:00,mfh,33.05
2023-06-28T02:55:00,mfh,33.00
2023-06-28T02:56:00,mfh,33.18
2023-06-28T02:57:00,mfh,33.16
2023-06-28T02:58:00,mfh,32.36
2023-06-28T02:59:00,mfh,32.38
2023-06-28T03:00:00,mfh,32.37
2023-06-28T03:01:00,mfh,33.08
2023-06-28T03:02:00,mfh,32.92
2023-06-28T03:03:00,mfh,32.85
2023-06-28T03:04:00,mfh,32.73
2023-06-28T03:05:00,mfh,32.70
2023-06-28T03:06:00,mfh,32.03
2023-06-28T03:07:00,mfh,32.02
2023-06-28T03:08:00,mfh,32.23
2023-06-28T03:09:00,mfh,32.17
2023-06-28T03:10:00,mfh,33.26
2023-06-28T03:11:00,mfh,32.90
2023-06-28T03:12:00,mfh,32.88
2023-06-28T03:13:00,mfh,32.95
2023-06-28T03:14:00,mfh,32.88
2023-06-28T03:15:00,mfh,32.26
2023-06-28T03:16:00,mfh,32.39
2023-06-28T03:17:00,mfh,32.24
2023-06-28T03:18:00,mfh,32.22
2023-06-28T03:19:00,mfh,32.94
2023-06-28T03:20:00,mfh,32.93
2023-06-28T03:21:00,mfh,33.04
2023-06-28T03:22:00,mfh,32.89
2023-06-28T03:23:00,mfh,32.93
2023-06-28T03:24:00,mfh,32.21
2023-06-28T03:25:00,mfh,32.29
2023-06-28T03:26:00,mfh,32.38
2023-06-28T03:27:00,mfh,32.36
2023-06-28T03:28:00,mfh,33.03
2023-06-28T03:29:00,mfh,32.95
2023-06-28T03:30:00,mfh,32.95
2023-06-28T03:31:00,mfh,32.86
2023-06-28T03:32:00,mfh,33.17
2023-06-28T03:33:00,mfh,32.29
2023-06-28T03:34:00,mfh,32.41
2023-06-28T03:35:00,mfh,32.37
2023-06-28T03:36:00,mfh,32.97
2023-06-28T03:37:00,mfh,32.92
2023-06-28T03:38:00,mfh,33.00
2023-06-28T03:39:00,mfh,33.27
2023-06-28T03:40:00,mfh,32.90
2023-06-28T03:41:00,mfh,32.13
2023-06-28T03:42:00,mfh,32.20
2023-06-28T03:43:00,mfh,32.18
2023-06-28T03:44:00,mfh,32.11
2023-06-28T03:45:00,mfh,32.68
2023-06-28T03:46:00,mfh,32.64
2023-06-28T03:47:00,mfh,32.82
2023-06-28T03:48:00,mfh,32.72
2023-06-28T03:49:00,mfh,32.76
2023-06-28T03:50:00,mfh,31.91
2023-06-28T03:51:00,mfh,31.90
2023-06-28T03:52:00,mfh,31.91
2023-06-28T03:53:00,mfh,31.96
2023-06-28T03:54:00,mfh,32.66
2023-06-28T03:55:00,mfh,32.81
2023-06-28T03:56:00,mfh,32.86
2023-06-28T03:57:00,mfh,32.79
2023-06-28T03:58:00,mfh,32.13
2023-06-28T03:59:00,mfh,32.05
2023-06-28T04:00:00,mfh,32.07
2023-06-28T04:01:00,mfh,32.05
2023-06-28T04:02:00,mfh,32.96
2023-06-28T04:03:00,mfh,33.01
2023-06-28T04:04:00,mfh,33.20
2023-06-28T04:05:00,mfh,33.27
2023-06-28T04:06:00,mfh,33.22
2023-06-28T04:07:00,mfh,32.59
2023-06-28T04:08:00,mfh,33.41
2023-06-28T04:09:00,mfh,33.12
2023-06-28T04:10:00,mfh,32.89
2023-06-28T04:11:00,mfh,33.06
2023-06-28T04:12:00,mfh,33.81
2023-06-28T04:13:00,mfh,33.51
2023-06-28T04:14:00,mfh,33.55
2023-06-28T04:15:00,mfh,33.74
2023-06-28T04:16:00,mfh,33.04
2023-06-28T04:17:00,mfh,33.00
2023-06-28T04:18:00,mfh,32.99
2023-06-28T04:19:00,mfh,32.97
2023-06-28T04:20:00,mfh,33.57
2023-06-28T04:21:00,mfh,33.61
2023-06-28T04:22:00,mfh,33.70
2023-06-28T04:23:00,mfh,33.72
2023-06-28T04:24:00,mfh,37.61
2023-06-28T04:25:00,mfh,37.11
2023-06-28T04:26:00,mfh,37.03
2023-06-28T04:27:00,mfh,37.12
2023-06-28T04:28:00,mfh,37.04
2023-06-28T04:29:00,mfh,37.71
2023-06-28T04:30:00,mfh,37.86
2023-06-28T04:31:00,mfh,37.90
2023-06-28T04:32:00,mfh,37.85
2023-06-28T04:33:00,mfh,37.91
2023-06-28T04:34:00,mfh,37.12
2023-06-28T04:35:00,mfh,36.98
2023-06-28T04:36:00,mfh,36.87
2023-06-28T04:37:00,mfh,37.47
2023-06-28T04:38:00,mfh,37.60
2023-06-28T04:39:00,mfh,37.59
2023-06-28T04:40:00,mfh,37.56
2023-06-28T04:41:00,mfh,37.44
2023-06-28T04:42:00,mfh,36.85
2023-06-28T04:43:00,mfh,36.85
2023-06-28T04:44:00,mfh,36.76
2023-06-28T04:45:00,mfh,36.95
2023-06-28T04:46:00,mfh,37.42
2023-06-28T04:47:00,mfh,37.41
2023-06-28T04:48:00,mfh,37.41
2023-06-28T04:49:00,mfh,37.46
2023-06-28T04:50:00,mfh,37.48
2023-06-28T04:51:00,mfh,36.91
2023-06-28T04:52:00,mfh,36.88
2023-06-28T04:53:00,mfh,48.00
2023-06-28T04:54:00,mfh,50.86
2023-06-28T04:55:00,mfh,62.81
2023-06-28T04:56:00,mfh,64.87
2023-06-28T04:57:00,mfh,65.72
2023-06-28T04:58:00,mfh,64.60
2023-06-28T04:59:00,mfh,63.64
2023-06-28T05:00:00,mfh,63.19
2023-06-28T05:01:00,mfh,81.39
2023-06-28T05:02:00,mfh,82.43
2023-06-28T05:03:00,mfh,76.40
2023-06-28T05:04:00,mfh,76.17
2023-06-28T05:05:00,mfh,75.77
2023-06-28T05:06:00,mfh,75.51
2023-06-28T05:07:00,mfh,70.17
2023-06-28T05:08:00,mfh,69.16
2023-06-28T05:09:00,mfh,69.28
2023-06-28T05:10:00,mfh,63.63
2023-06-28T05:11:00,mfh,63.96
2023-06-28T05:12:00,mfh,64.61
2023-06-28T05:13:00,mfh,64.19
2023-06-28T05:14:00,mfh,64.16
2023-06-28T05:15:00,mfh,63.93
2023-06-28T05:16:00,mfh,64.47
2023-06-28T05:17:00,mfh,63.47
2023-06-28T05:18:00,mfh,63.50
2023-06-28T05:19:00,mfh,63.61
2023-06-28T05:20:00,mfh,63.97
2023-06-28T05:21:00,mfh,63.81
2023-06-28T05:22:00,mfh,63.89
2023-06-28T05:23:00,mfh,64.09
2023-06-28T05:24:00,mfh,64.03
2023-06-28T05:25:00,mfh,63.35
2023-06-28T05:26:00,mfh,63.37
2023-06-28T05:27:00,mfh,63.42
2023-06-28T05:28:00,mfh,63.71
2023-06-28T05:29:00,mfh,63.88
2023-06-28T05:30:00,mfh,63.82
2023-06-28T05:31:00,mfh,65.42
2023-06-28T05:32:00,mfh,65.20
2023-06-28T05:33:00,mfh,64.38
2023-06-28T05:34:00,mfh,64.38
2023-06-28T05:35:00,mfh,64.54
2023-06-28T05:36:00,mfh,62.74
2023-06-28T05:37:00,mfh,63.48
2023-06-28T05:38:00,mfh,63.40
2023-06-28T05:39:00,mfh,63.43
2023-06-28T05:40:00,mfh,63.40
2023-06-28T05:41:00,mfh,62.69
2023-06-28T05:42:00,mfh,62.68
2023-06-28T05:43:00,mfh,62.75
2023-06-28T05:44:00,mfh,62.88
2023-06-28T05:45:00,mfh,63.52
2023-06-28T05:46:00,mfh,63.49
2023-06-28T05:47:00,mfh,63.62
2023-06-28T05:48:00,mfh,63.80
2023-06-28T05:49:00,mfh,63.57
2023-06-28T05:50:00,mfh,62.85
2023-06-28T05:51:00,mfh,62.90
2023-06-28T05:52:00,mfh,63.10
2023-06-28T05:53:00,mfh,62.70
2023-06-28T05:54:00,mfh,63.50
2023-06-28T05:55:00,mfh,64.03
2023-06-28T05:56:00,mfh,63.86
2023-06-28T05:57:00,mfh,63.84
2023-06-28T05:58:00,mfh,63.94
2023-06-28T05:59:00,mfh,63.16
2023-06-28T06:00:00,mfh,63.29
2023-06-28T06:01:00,mfh,67.53
2023-06-28T06:02:00,mfh,69.03
2023-06-28T06:03:00,mfh,68.24
2023-06-28T06:04:00,mfh,68.98
2023-06-28T06:05:00,mfh,69.13
2023-06-28T06:06:00,mfh,69.51
2023-06-28T06:07:00,mfh,75.28
2023-06-28T06:08:00,mfh,83.84
2023-06-28T06:09:00,mfh,84.57
2023-06-28T06:10:00,mfh,84.44
2023-06-28T06:11:00,mfh,84.31
2023-06-28T06:12:00,mfh,84.47
2023-06-28T06:13:00,mfh,84.08
2023-06-28T06:14:00,mfh,84.53
2023-06-28T06:15:00,mfh,84.47
2023-06-28T06:16:00,mfh,84.45
2023-06-28T06:17:00,mfh,84.43
2023-06-28T06:18:00,mfh,84.09
2023-06-28T06:19:00,mfh,83.99
2023-06-28T06:20:00,mfh,83.94
2023-06-28T06:21:00,mfh,83.87
2023-06-28T06:22:00,mfh,84.04
2023-06-28T06:23:00,mfh,83.95
2023-06-28T06:24:00,mfh,83.70
2023-06-28T06:25:00,mfh,83.71
2023-06-28T06:26:00,mfh,83.73
2023-06-28T06:27:00,mfh,83.67
2023-06-28T06:28:00,mfh,83.65
2023-06-28T06:29:00,mfh,83.65
2023-06-28T06:30:00,mfh,83.51
2023-06-28T06:31:00,mfh,73.31
2023-06-28T06:32:00,mfh,73.05
2023-06-28T06:33:00,mfh,73.30
2023-06-28T06:34:00,mfh,73.33
2023-06-28T06:35:00,mfh,73.41
2023-06-28T06:36:00,mfh,73.47
2023-06-28T06:37:00,mfh,74.22
2023-06-28T06:38:00,mfh,75.04
2023-06-28T06:39:00,mfh,74.26
2023-06-28T06:40:00,mfh,74.35
2023-06-28T06:41:00,mfh,72.86
2023-06-28T06:42:00,mfh,72.93
2023-06-28T06:43:00,mfh,73.09
2023-06-28T06:44:00,mfh,72.91
2023-06-28T06:45:00,mfh,73.63
2023-06-28T06:46:00,mfh,74.17
2023-06-28T06:47:00,mfh,74.02
2023-06-28T06:48:00,mfh,74.18
2023-06-28T06:49:00,mfh,74.09
2023-06-28T06:50:00,mfh,74.04
2023-06-28T06:51:00,mfh,74.05
2023-06-28T06:52:00,mfh,74.48
2023-06-28T06:53:00,mfh,75.13
2023-06-28T06:54:00,mfh,73.46
2023-06-28T06:55:00,mfh,73.43
2023-06-28T06:56:00,mfh,74.55
2023-06-28T06:57:00,mfh,74.35
2023-06-28T06:58:00,mfh,73.77
2023-06-28T06:59:00,mfh,61.76
2023-06-28T07:00:00,mfh,62.16
2023-06-28T07:01:00,mfh,70.22
2023-06-28T07:02:00,mfh,84.29
2023-06-28T07:03:00,mfh,84.96
2023-06-28T07:04:00,mfh,84.56
2023-06-28T07:05:00,mfh,84.53
2023-06-28T07:06:00,mfh,84.10
2023-06-28T07:07:00,mfh,83.95
2023-06-28T07:08:00,mfh,83.98
2023-06-28T07:09:00,mfh,83.98
2023-06-28T07:10:00,mfh,83.75
2023-06-28T07:11:00,mfh,83.81
2023-06-28T07:12:00,mfh,83.71
2023-06-28T07:13:00,mfh,83.73
2023-06-28T07:14:00,mfh,83.65
2023-06-28T07:15:00,mfh,83.39
2023-06-28T07:16:00,mfh,78.24
2023-06-28T07:17:00,mfh,78.14
2023-06-28T07:18:00,mfh,78.45
2023-06-28T07:19:00,mfh,78.35
2023-06-28T07:20:00,mfh,79.07
2023-06-28T07:21:00,mfh,74.25
2023-06-28T07:22:00,mfh,74.49
2023-06-28T07:23:00,mfh,69.18
2023-06-28T07:24:00,mfh,63.41
2023-06-28T07:25:00,mfh,61.77
2023-06-28T07:26:00,mfh,61.49
2023-06-28T07:27:00,mfh,61.59
2023-06-28T07:28:00,mfh,62.70
2023-06-28T07:29:00,mfh,62.71
2023-06-28T07:30:00,mfh,62.84
2023-06-28T07:31:00,mfh,62.65
2023-06-28T07:32:00,mfh,62.73
2023-06-28T07:33:00,mfh,62.74
2023-06-28T07:34:00,mfh,62.85
2023-06-28T07:35:00,mfh,75.77
2023-06-28T07:36:00,mfh,75.32
2023-06-28T07:37:00,mfh,75.14
2023-06-28T07:38:00,mfh,75.14
2023-06-28T07:39:00,mfh,75.16
2023-06-28T07:40:00,mfh,75.14
2023-06-28T07:41:00,mfh,75.45
2023-06-28T07:42:00,mfh,75.00
2023-06-28T07:43:00,mfh,75.01
2023-06-28T07:44:00,mfh,74.93
2023-06-28T07:45:00,mfh,75.04
2023-06-28T07:46:00,mfh,75.05
2023-06-28T07:47:00,mfh,73.64
2023-06-28T07:48:00,mfh,79.35
2023-06-28T07:49:00,mfh,79.89
2023-06-28T07:50:00,mfh,74.99
2023-06-28T07:51:00,mfh,69.74
2023-06-28T07:52:00,mfh,70.00
2023-06-28T07:53:00,mfh,69.77
2023-06-28T07:54:00,mfh,69.83
2023-06-28T07:55:00,mfh,69.67
2023-06-28T07:56:00,mfh,70.13
2023-06-28T07:57:00,mfh,62.55
2023-06-28T07:58:00,mfh,61.53
2023-06-28T07:59:00,mfh,61.66
2023-06-28T08:00:00,mfh,61.39
2023-06-28T08:01:00,mfh,62.14
2023-06-28T08:02:00,mfh,61.72
2023-06-28T08:03:00,mfh,60.97
2023-06-28T08:04:00,mfh,60.55
2023-06-28T08:05:00,mfh,60.50
2023-06-28T08:06:00,mfh,60.51
2023-06-28T08:07:00,mfh,60.69
2023-06-28T08:08:00,mfh,60.20
2023-06-28T08:09:00,mfh,60.06
2023-06-28T08:10:00,mfh,61.49
2023-06-28T08:11:00,mfh,61.80
2023-06-28T08:12:00,mfh,60.82
2023-06-28T08:13:00,mfh,60.58
2023-06-28T08:14:00,mfh,61.62
2023-06-28T08:15:00,mfh,60.79
2023-06-28T08:16:00,mfh,60.83
2023-06-28T08:17:00,mfh,60.65
2023-06-28T08:18:00,mfh,60.73
2023-06-28T08:19:00,mfh,60.02
2023-06-28T08:20:00,mfh,59.96
2023-06-28T08:21:00,mfh,59.97
2023-06-28T08:22:00,mfh,59.93
2023-06-28T08:23:00,mfh,60.62
2023-06-28T08:24:00,mfh,60.52
2023-06-28T08:25:00,mfh,60.41
2023-06-28T08:26:00,mfh,61.55
2023-06-28T08:27:00,mfh,62.35
2023-06-28T08:28:00,mfh,61.72
2023-06-28T08:29:00,mfh,62.26
2023-06-28T08:30:00,mfh,60.64
2023-06-28T08:31:00,mfh,60.60
2023-06-28T08:32:00,mfh,60.91
2023-06-28T08:33:00,mfh,61.63
2023-06-28T08:34:00,mfh,61.71
2023-06-28T08:35:00,mfh,61.88
2023-06-28T08:36:00,mfh,62.72
2023-06-28T08:37:00,mfh,63.77
2023-06-28T08:38:00,mfh,62.67
2023-06-28T08:39:00,mfh,63.02
2023-06-28T08:40:00,mfh,62.90
2023-06-28T08:41:00,mfh,61.09
2023-06-28T08:42:00,mfh,73.19
2023-06-28T08:43:00,mfh,74.36
2023-06-28T08:44:00,mfh,76.08
2023-06-28T08:45:00,mfh,76.50
2023-06-28T08:46:00,mfh,76.22
2023-06-28T08:47:00,mfh,76.50
2023-06-28T08:48:00,mfh,76.18
2023-06-28T08:49:00,mfh,76.07
2023-06-28T08:50:00,mfh,68.41
2023-06-28T08:51:00,mfh,69.32
2023-06-28T08:52:00,mfh,68.59
2023-06-28T08:53:00,mfh,75.89
2023-06-28T08:54:00,mfh,81.41
2023-06-28T08:55:00,mfh,82.19
2023-06-28T08:56:00,mfh,82.66
2023-06-28T08:57:00,mfh,82.44
2023-06-28T08:58:00,mfh,82.65
2023-06-28T08:59:00,mfh,82.28
2023-06-28T09:00:00,mfh,82.25
2023-06-28T09:01:00,mfh,82.04
2023-06-28T09:02:00,mfh,82.23
2023-06-28T09:03:00,mfh,81.54
2023-06-28T09:04:00,mfh,81.22
2023-06-28T09:05:00,mfh,81.42
2023-06-28T09:06:00,mfh,81.63
2023-06-28T09:07:00,mfh,75.14
2023-06-28T09:08:00,mfh,81.54
2023-06-28T09:09:00,mfh,81.52
2023-06-28T09:10:00,mfh,81.42
2023-06-28T09:11:00,mfh,81.13
2023-06-28T09:12:00,mfh,81.20
2023-06-28T09:13:00,mfh,81.03
2023-06-28T09:14:00,mfh,80.57
2023-06-28T09:15:00,mfh,80.67
2023-06-28T09:16:00,mfh,80.66
2023-06-28T09:17:00,mfh,81.26
2023-06-28T09:18:00,mfh,81.18
2023-06-28T09:19:00,mfh,81.06
2023-06-28T09:20:00,mfh,80.94
2023-06-28T09:21:00,mfh,81.06
2023-06-28T09:22:00,mfh,81.17
2023-06-28T09:23:00,mfh,81.16
2023-06-28T09:24:00,mfh,81.06
2023-06-28T09:25:00,mfh,80.74
2023-06-28T09:26:00,mfh,80.73
2023-06-28T09:27:00,mfh,80.77
2023-06-28T09:28:00,mfh,81.28
2023-06-28T09:29:00,mfh,81.17
2023-06-28T09:30:00,mfh,81.15
2023-06-28T09:31:00,mfh,81.30
2023-06-28T09:32:00,mfh,81.23
2023-06-28T09:33:00,mfh,81.28
2023-06-28T09:34:00,mfh,81.17
2023-06-28T09:35:00,mfh,61.79
2023-06-28T09:36:00,mfh,61.89
2023-06-28T09:37:00,mfh,61.92
2023-06-28T09:38:00,mfh,62.63
2023-06-28T09:39:00,mfh,76.44
2023-06-28T09:40:00,mfh,75.69
2023-06-28T09:41:00,mfh,75.53
2023-06-28T09:42:00,mfh,75.75
2023-06-28T09:43:00,mfh,75.32
2023-06-28T09:44:00,mfh,75.18
2023-06-28T09:45:00,mfh,75.25
2023-06-28T09:46:00,mfh,75.06
2023-06-28T09:47:00,mfh,74.13
2023-06-28T09:48:00,mfh,74.26
2023-06-28T09:49:00,mfh,74.79
2023-06-28T09:50:00,mfh,74.89
2023-06-28T09:51:00,mfh,74.80
2023-06-28T09:52:00,mfh,74.73
2023-06-28T09:53:00,mfh,67.98
2023-06-28T09:54:00,mfh,62.64
2023-06-28T09:55:00,mfh,63.71
2023-06-28T09:56:00,mfh,62.77
2023-06-28T09:57:00,mfh,62.17
2023-06-28T09:58:00,mfh,75.19
2023-06-28T09:59:00,mfh,75.74
2023-06-28T10:00:00,mfh,75.79
2023-06-28T10:01:00,mfh,75.91
2023-06-28T10:02:00,mfh,75.95
2023-06-28T10:03:00,mfh,75.69
2023-06-28T10:04:00,mfh,75.71
2023-06-28T10:05:00,mfh,75.65
2023-06-28T10:06:00,mfh,81.94
2023-06-28T10:07:00,mfh,82.41
2023-06-28T10:08:00,mfh,84.76
2023-06-28T10:09:00,mfh,85.05
2023-06-28T10:10:00,mfh,85.20
2023-06-28T10:11:00,mfh,84.71
2023-06-28T10:12:00,mfh,84.54
2023-06-28T10:13:00,mfh,84.51
2023-06-28T10:14:00,mfh,84.73
2023-06-28T10:15:00,mfh,84.44
2023-06-28T10:16:00,mfh,84.36
2023-06-28T10:17:00,mfh,84.41
2023-06-28T10:18:00,mfh,84.11
2023-06-28T10:19:00,mfh,83.90
2023-06-28T10:20:00,mfh,83.88
2023-06-28T10:21:00,mfh,83.87
2023-06-28T10:22:00,mfh,83.83
2023-06-28T10:23:00,mfh,83.99
2023-06-28T10:24:00,mfh,83.51
2023-06-28T10:25:00,mfh,83.37
2023-06-28T10:26:00,mfh,83.38
2023-06-28T10:27:00,mfh,79.44
2023-06-28T10:28:00,mfh,79.45
2023-06-28T10:29:00,mfh,79.35
2023-06-28T10:30:00,mfh,79.37
2023-06-28T10:31:00,mfh,78.77
2023-06-28T10:32:00,mfh,78.88
2023-06-28T10:33:00,mfh,78.75
2023-06-28T10:34:00,mfh,79.37
2023-06-28T10:35:00,mfh,79.38
2023-06-28T10:36:00,mfh,79.29
2023-06-28T10:37:00,mfh,83.04
2023-06-28T10:38:00,mfh,83.44
2023-06-28T10:39:00,mfh,83.53
2023-06-28T10:40:00,mfh,83.34
2023-06-28T10:41:00,mfh,83.53
2023-06-28T10:42:00,mfh,83.25
2023-06-28T10:43:00,mfh,83.03
2023-06-28T10:44:00,mfh,83.67
2023-06-28T10:45:00,mfh,83.69
2023-06-28T10:46:00,mfh,83.75
2023-06-28T10:47:00,mfh,83.61
2023-06-28T10:48:00,mfh,83.64
2023-06-28T10:49:00,mfh,83.61
2023-06-28T10:50:00,mfh,83.44
2023-06-28T10:51:00,mfh,83.50
2023-06-28T10:52:00,mfh,83.38
2023-06-28T10:53:00,mfh,83.18
2023-06-28T10:54:00,mfh,79.46
2023-06-28T10:55:00,mfh,79.31
2023-06-28T10:56:00,mfh,79.85
2023-06-28T10:57:00,mfh,80.09
2023-06-28T10:58:00,mfh,80.08
2023-06-28T10:59:00,mfh,80.37
2023-06-28T11:00:00,mfh,80.18
2023-06-28T11:01:00,mfh,80.10
2023-06-28T11:02:00,mfh,80.27
2023-06-28T11:03:00,mfh,79.73
2023-06-28T11:04:00,mfh,79.73
2023-06-28T11:05:00,mfh,79.63
2023-06-28T11:06:00,mfh,79.95
2023-06-28T11:07:00,mfh,80.31
2023-06-28T11:08:00,mfh,80.25
2023-06-28T11:09:00,mfh,79.99
2023-06-28T11:10:00,mfh,79.80
2023-06-28T11:11:00,mfh,79.69
2023-06-28T11:12:00,mfh,80.04
2023-06-28T11:13:00,mfh,79.81
2023-06-28T11:14:00,mfh,79.66
2023-06-28T11:15:00,mfh,79.30
2023-06-28T11:16:00,mfh,79.36
2023-06-28T11:17:00,mfh,79.25
2023-06-28T11:18:00,mfh,80.14
2023-06-28T11:19:00,mfh,80.37
2023-06-28T11:20:00,mfh,79.62
2023-06-28T11:21:00,mfh,79.70
2023-06-28T11:22:00,mfh,79.53
2023-06-28T11:23:00,mfh,80.28
2023-06-28T11:24:00,mfh,80.22
2023-06-28T11:25:00,mfh,83.85
2023-06-28T11:26:00,mfh,83.97
2023-06-28T11:27:00,mfh,83.95
2023-06-28T11:28:00,mfh,83.86
2023-06-28T11:29:00,mfh,84.00
2023-06-28T11:30:00,mfh,83.69
2023-06-28T11:31:00,mfh,83.55
2023-06-28T11:32:00,mfh,83.41
2023-06-28T11:33:00,mfh,83.71
2023-06-28T11:34:00,mfh,83.74
2023-06-28T11:35:00,mfh,83.69
2023-06-28T11:36:00,mfh,83.77
2023-06-28T11:37:00,mfh,83.66
2023-06-28T11:38:00,mfh,83.63
2023-06-28T11:39:00,mfh,83.63
2023-06-28T11:40:00,mfh,83.72
2023-06-28T11:41:00,mfh,83.86
2023-06-28T11:42:00,mfh,83.52
2023-06-28T11:43:00,mfh,83.59
2023-06-28T11:44:00,mfh,79.83
2023-06-28T11:45:00,mfh,80.21
2023-06-28T11:46:00,mfh,80.08
2023-06-28T11:47:00,mfh,80.35
2023-06-28T11:48:00,mfh,81.18
2023-06-28T11:49:00,mfh,80.18
2023-06-28T11:50:00,mfh,80.17
2023-06-28T11:51:00,mfh,80.06
2023-06-28T11:52:00,mfh,79.84
2023-06-28T11:53:00,mfh,79.71
2023-06-28T11:54:00,mfh,79.79
2023-06-28T11:55:00,mfh,79.63
2023-06-28T11:56:00,mfh,80.30
2023-06-28T11:57:00,mfh,80.27
2023-06-28T11:58:00,mfh,80.73
2023-06-28T11:59:00,mfh,80.69
2023-06-28T12:00:00,mfh,80.84
2023-06-28T12:01:00,mfh,80.88
2023-06-28T12:02:00,mfh,80.71
2023-06-28T12:03:00,mfh,80.48
2023-06-28T12:04:00,mfh,79.94
2023-06-28T12:05:00,mfh,79.86
2023-06-28T12:06:00,mfh,79.73
2023-06-28T12:07:00,mfh,80.39
2023-06-28T12:08:00,mfh,80.28
2023-06-28T12:09:00,mfh,80.17
2023-06-28T12:10:00,mfh,80.20
2023-06-28T12:11:00,mfh,80.51
2023-06-28T12:12:00,mfh,80.26
2023-06-28T12:13:00,mfh,80.22
2023-06-28T12:14:00,mfh,81.13
2023-06-28T12:15:00,mfh,80.44
2023-06-28T12:16:00,mfh,80.46
2023-06-28T12:17:00,mfh,80.85
2023-06-28T12:18:00,mfh,80.98
2023-06-28T12:19:00,mfh,67.57
2023-06-28T12:20:00,mfh,62.17
2023-06-28T12:21:00,mfh,61.77
2023-06-28T12:22:00,mfh,62.07
2023-06-28T12:23:00,mfh,62.19
2023-06-28T12:24:00,mfh,62.21
2023-06-28T12:25:00,mfh,62.01
2023-06-28T12:26:00,mfh,61.90
2023-06-28T12:27:00,mfh,61.69
2023-06-28T12:28:00,mfh,61.88
2023-06-28T12:29:00,mfh,62.56
2023-06-28T12:30:00,mfh,63.99
2023-06-28T12:31:00,mfh,64.39
2023-06-28T12:32:00,mfh,64.42
2023-06-28T12:33:00,mfh,64.17
2023-06-28T12:34:00,mfh,64.11
2023-06-28T12:35:00,mfh,62.80
2023-06-28T12:36:00,mfh,62.50
2023-06-28T12:37:00,mfh,62.35
2023-06-28T12:38:00,mfh,62.39
2023-06-28T12:39:00,mfh,63.38
2023-06-28T12:40:00,mfh,64.67
2023-06-28T12:41:00,mfh,63.14
2023-06-28T12:42:00,mfh,62.79
2023-06-28T12:43:00,mfh,63.06
2023-06-28T12:44:00,mfh,63.61
2023-06-28T12:45:00,mfh,63.65
2023-06-28T12:46:00,mfh,62.85
2023-06-28T12:47:00,mfh,63.64
2023-06-28T12:48:00,mfh,63.90
2023-06-28T12:49:00,mfh,62.92
2023-06-28T12:50:00,mfh,62.89
2023-06-28T12:51:00,mfh,63.91
2023-06-28T12:52:00,mfh,63.40
2023-06-28T12:53:00,mfh,63.74
2023-06-28T12:54:00,mfh,63.44
2023-06-28T12:55:00,mfh,62.93
2023-06-28T12:56:00,mfh,62.85
2023-06-28T12:57:00,mfh,62.95
2023-06-28T12:58:00,mfh,62.82
2023-06-28T12:59:00,mfh,61.88
2023-06-28T13:00:00,mfh,61.81
2023-06-28T13:01:00,mfh,62.39
2023-06-28T13:02:00,mfh,62.67
2023-06-28T13:03:00,mfh,62.04
2023-06-28T13:04:00,mfh,62.34
2023-06-28T13:05:00,mfh,62.31
2023-06-28T13:06:00,mfh,62.21
2023-06-28T13:07:00,mfh,62.42
2023-06-28T13:08:00,mfh,62.04
2023-06-28T13:09:00,mfh,62.01
2023-06-28T13:10:00,mfh,61.28
2023-06-28T13:11:00,mfh,61.90
2023-06-28T13:12:00,mfh,61.32
2023-06-28T13:13:00,mfh,62.00
2023-06-28T13:14:00,mfh,61.96
2023-06-28T13:15:00,mfh,62.05
2023-06-28T13:16:00,mfh,62.23
2023-06-28T13:17:00,mfh,63.09
2023-06-28T13:18:00,mfh,63.08